• In Deutschland
  • Länderverzeichnis
  • Für 7 Tage
  • Wassertemperatur
  • Satellitenkarten
  • Wetterkarte
  • Widgets
  • user-avatar
    Anmelden

    Stündliche Wetter Quito

    Heute, 28 Juli, Freitag

    Zeit Temperatur Niederschläge Wind Luftdruck Luftfeuchtigkeit
    00:00 +16°C° 0 mm 1 m/S 624 mmHg 31%
    01:00 +15°C° 0 mm 1 m/S 624 mmHg 32%
    02:00 +14°C° 0 mm 1 m/S 623 mmHg 33%
    03:00 +13°C° 0 mm 1 m/S 623 mmHg 35%
    04:00 +13°C° 0 mm 2 m/S 623 mmHg 36%
    05:00 +13°C° 0 mm 2 m/S 623 mmHg 37%
    06:00 +13°C° 0 mm 2 m/S 623 mmHg 38%
    07:00 +13°C° 0 mm 2 m/S 624 mmHg 38%
    08:00 +16°C° 0 mm 2 m/S 625 mmHg 33%
    09:00 +19°C° 0 mm 3 m/S 626 mmHg 27%
    10:00 +23°C° 0 mm 4 m/S 627 mmHg 22%
    11:00 +25°C° 0 mm 3 m/S 627 mmHg 20%
    12:00 +27°C° 0 mm 3 m/S 626 mmHg 18%
    13:00 +29°C° 0 mm 2 m/S 626 mmHg 16%
    14:00 +29°C° 0 mm 2 m/S 626 mmHg 15%
    15:00 +28°C° 0 mm 2 m/S 625 mmHg 15%
    16:00 +28°C° 0 mm 2 m/S 625 mmHg 15%
    17:00 +26°C° 0 mm 1 m/S 624 mmHg 17%
    18:00 +23°C° 0 mm 1 m/S 624 mmHg 20%
    19:00 +20°C° 0 mm 1 m/S 623 mmHg 23%
    20:00 +20°C° 0 mm 1 m/S 624 mmHg 24%
    21:00 +19°C° 0 mm 1 m/S 624 mmHg 25%
    22:00 +18°C° 0 mm 1 m/S 624 mmHg 25%
    23:00 +16°C° 0 mm 1 m/S 624 mmHg 27%

    Morgen, 29 Juli, Samstag

    Zeit Temperatur Niederschläge Wind Luftdruck Luftfeuchtigkeit
    00:00 +16°C° 0 mm 1 m/S 624 mmHg 28%
    01:00 +15°C° 0 mm 2 m/S 624 mmHg 30%
    02:00 +14°C° 0 mm 2 m/S 623 mmHg 32%
    03:00 +13°C° 0 mm 2 m/S 623 mmHg 33%
    04:00 +13°C° 0 mm 2 m/S 623 mmHg 35%
    05:00 +13°C° 0 mm 2 m/S 623 mmHg 36%
    06:00 +13°C° 0 mm 2 m/S 624 mmHg 36%
    07:00 +13°C° 0 mm 2 m/S 624 mmHg 37%
    08:00 +16°C° 0 mm 3 m/S 625 mmHg 32%
    09:00 +19°C° 0 mm 3 m/S 626 mmHg 27%
    10:00 +22°C° 0 mm 4 m/S 627 mmHg 22%
    11:00 +24°C° 0 mm 3 m/S 627 mmHg 20%
    12:00 +26°C° 0 mm 3 m/S 627 mmHg 18%
    13:00 +28°C° 0 mm 2 m/S 626 mmHg 16%
    14:00 +28°C° 0 mm 2 m/S 626 mmHg 15%
    15:00 +28°C° 0 mm 2 m/S 625 mmHg 15%
    16:00 +28°C° 0 mm 2 m/S 625 mmHg 14%
    17:00 +25°C° 0 mm 1 m/S 624 mmHg 17%
    18:00 +22°C° 0 mm 1 m/S 624 mmHg 20%
    19:00 +20°C° 0 mm 1 m/S 623 mmHg 23%
    20:00 +19°C° 0 mm 1 m/S 624 mmHg 24%
    21:00 +18°C° 0 mm 1 m/S 624 mmHg 25%
    22:00 +18°C° 0 mm 1 m/S 624 mmHg 26%
    23:00 +16°C° 0 mm 1 m/S 624 mmHg 28%

    übermorgen, 30 Juli, Sonntag

    Zeit Temperatur Niederschläge Wind Luftdruck Luftfeuchtigkeit
    00:00 +15°C° 0 mm 1 m/S 624 mmHg 29%
    01:00 +14°C° 0 mm 1 m/S 623 mmHg 31%
    02:00 +13°C° 0 mm 1 m/S 623 mmHg 33%
    03:00 +13°C° 0 mm 1 m/S 623 mmHg 36%
    04:00 +12°C° 0 mm 1 m/S 622 mmHg 38%
    05:00 +12°C° 0 mm 1 m/S 623 mmHg 39%
    06:00 +12°C° 0 mm 1 m/S 623 mmHg 40%
    07:00 +12°C° 0 mm 2 m/S 624 mmHg 41%
    08:00 +16°C° 0 mm 2 m/S 625 mmHg 35%
    09:00 +19°C° 0 mm 3 m/S 626 mmHg 30%
    10:00 +22°C° 0 mm 4 m/S 627 mmHg 24%
    11:00 +25°C° 0 mm 3 m/S 627 mmHg 21%
    12:00 +27°C° 0 mm 2 m/S 627 mmHg 18%
    13:00 +29°C° 0 mm 2 m/S 626 mmHg 15%
    14:00 +29°C° 0 mm 1 m/S 626 mmHg 15%
    15:00 +29°C° 0 mm 1 m/S 625 mmHg 15%
    16:00 +29°C° 0 mm 1 m/S 624 mmHg 15%
    17:00 +26°C° 0 mm 1 m/S 624 mmHg 17%
    18:00 +23°C° 0 mm 1 m/S 624 mmHg 20%
    19:00 +21°C° 0 mm 1 m/S 623 mmHg 22%
    20:00 +20°C° 0 mm 1 m/S 624 mmHg 23%
    21:00 +19°C° 0 mm 1 m/S 624 mmHg 24%
    22:00 +18°C° 0 mm 1 m/S 624 mmHg 25%
    23:00 +18°C° 0 mm 1 m/S 624 mmHg 26%

    31 Juli, Montag

    Zeit Temperatur Niederschläge Wind Luftdruck Luftfeuchtigkeit
    00:00 +16°C° 0 mm 1 m/S 623 mmHg 27%
    01:00 +15°C° 0 mm 1 m/S 623 mmHg 28%
    02:00 +15°C° 0 mm 1 m/S 622 mmHg 30%
    03:00 +14°C° 0 mm 1 m/S 622 mmHg 32%
    04:00 +13°C° 0 mm 1 m/S 622 mmHg 34%
    05:00 +13°C° 0 mm 1 m/S 622 mmHg 36%
    06:00 +13°C° 0 mm 1 m/S 623 mmHg 37%
    07:00 +13°C° 0 mm 1 m/S 624 mmHg 39%
    08:00 +17°C° 0 mm 2 m/S 625 mmHg 33%
    09:00 +21°C° 0 mm 2 m/S 626 mmHg 27%
    10:00 +25°C° 0 mm 3 m/S 627 mmHg 22%
    11:00 +27°C° 0 mm 2 m/S 626 mmHg 19%
    12:00 +30°C° 0 mm 2 m/S 626 mmHg 16%
    13:00 +32°C° 0 mm 1 m/S 626 mmHg 14%
    14:00 +31°C° 0 mm 1 m/S 625 mmHg 14%
    15:00 +31°C° 0 mm 1 m/S 625 mmHg 14%
    16:00 +30°C° 0 mm 1 m/S 624 mmHg 14%
    17:00 +27°C° 0 mm 1 m/S 624 mmHg 16%
    18:00 +25°C° 0 mm 1 m/S 623 mmHg 19%
    19:00 +22°C° 0 mm 1 m/S 623 mmHg 21%
    20:00 +21°C° 0 mm 1 m/S 623 mmHg 22%
    21:00 +20°C° 0 mm 1 m/S 624 mmHg 23%
    22:00 +18°C° 0 mm 0 m/S 624 mmHg 24%
    23:00 +17°C° 0 mm 0 m/S 624 mmHg 24%

    1 August, Dienstag

    Zeit Temperatur Niederschläge Wind Luftdruck Luftfeuchtigkeit
    00:00 +18°C° 0 mm 1 m/S 623 mmHg 25%
    01:00 +18°C° 0 mm 1 m/S 623 mmHg 26%
    02:00 +16°C° 0 mm 1 m/S 623 mmHg 27%
    03:00 +15°C° 0 mm 1 m/S 622 mmHg 29%
    04:00 +14°C° 0 mm 1 m/S 622 mmHg 30%
    05:00 +14°C° 0 mm 1 m/S 623 mmHg 31%
    06:00 +14°C° 0 mm 1 m/S 623 mmHg 32%
    07:00 +14°C° 0 mm 1 m/S 624 mmHg 34%
    08:00 +19°C° 0 mm 1 m/S 625 mmHg 30%
    09:00 +23°C° 0 mm 2 m/S 626 mmHg 25%
    10:00 +26°C° 0 mm 2 m/S 627 mmHg 21%
    11:00 +28°C° 0 mm 2 m/S 626 mmHg 19%
    12:00 +30°C° 0 mm 2 m/S 626 mmHg 17%
    13:00 +31°C° 0 mm 2 m/S 626 mmHg 15%
    14:00 +31°C° 0 mm 2 m/S 626 mmHg 15%
    15:00 +31°C° 0 mm 2 m/S 625 mmHg 15%
    16:00 +30°C° 0 mm 1 m/S 625 mmHg 15%
    17:00 +28°C° 0 mm 1 m/S 624 mmHg 17%
    18:00 +25°C° 0 mm 1 m/S 624 mmHg 20%
    19:00 +22°C° 0 mm 1 m/S 624 mmHg 23%
    20:00 +22°C° 0 mm 1 m/S 624 mmHg 23%
    21:00 +21°C° 0 mm 1 m/S 624 mmHg 24%
    22:00 +21°C° 0 mm 1 m/S 624 mmHg 24%
    23:00 +20°C° 0 mm 1 m/S 624 mmHg 26%

    2 August, Mittwoch

    Zeit Temperatur Niederschläge Wind Luftdruck Luftfeuchtigkeit
    00:00 +19°C° 0 mm 1 m/S 624 mmHg 27%
    01:00 +17°C° 0 mm 2 m/S 623 mmHg 28%
    02:00 +17°C° 0 mm 2 m/S 623 mmHg 30%
    03:00 +16°C° 0 mm 2 m/S 623 mmHg 32%
    04:00 +15°C° 0 mm 2 m/S 623 mmHg 33%
    05:00 +15°C° 0 mm 2 m/S 623 mmHg 35%
    06:00 +15°C° 0 mm 1 m/S 624 mmHg 37%
    07:00 +15°C° 0 mm 1 m/S 624 mmHg 38%
    08:00 +19°C° 0 mm 2 m/S 625 mmHg 33%
    09:00 +22°C° 0 mm 3 m/S 626 mmHg 28%
    10:00 +26°C° 0 mm 4 m/S 627 mmHg 22%
    11:00 +28°C° 0 mm 3 m/S 627 mmHg 21%
    12:00 +29°C° 0 mm 3 m/S 626 mmHg 19%
    13:00 +31°C° 0 mm 2 m/S 626 mmHg 17%
    14:00 +30°C° 0 mm 2 m/S 626 mmHg 17%
    15:00 +30°C° 0 mm 2 m/S 625 mmHg 17%
    16:00 +30°C° 0 mm 1 m/S 625 mmHg 16%
    17:00 +28°C° 0 mm 1 m/S 625 mmHg 19%
    18:00 +25°C° 0 mm 1 m/S 624 mmHg 22%
    19:00 +23°C° 0 mm 1 m/S 624 mmHg 25%
    20:00 +22°C° 0 mm 1 m/S 624 mmHg 26%
    21:00 +22°C° 0 mm 1 m/S 624 mmHg 26%
    22:00 +21°C° 0 mm 1 m/S 624 mmHg 27%
    23:00 +21°C° 0 mm 1 m/S 624 mmHg 27%
    Mehr zeigen